Regional Weather Roundup
Issued by NWS

Home | Current Version | Previous Version | Graphics & Text | Print | Product List | Glossary On
Versions: 1 2 3 4 5 6 7 8 9 10 11 12 13 14 15 16 17 18 19 20 21 22 23 24 25 26 27 28 29 30 31 32 33 34 35 36 37 38 39 40 41 42 43 44 45 46 47 48 49 50
000
ASUS43 KMPX 211810
RWRMN
WEATHER ROUNDUP FOR MINNESOTA
NATIONAL WEATHER SERVICE TWIN CITIES/CHANHASSEN MN
1200 PM CST WED FEB 21 2018


NOTE: "FAIR" INDICATES FEW OR NO CLOUDS BELOW 12,000 FEET WITH NO
SIGNIFICANT WEATHER AND/OR OBSTRUCTIONS TO VISIBILITY. N/A MEANS
CURRENT SKY AND/OR WEATHER CONDITIONS ARE NOT AVAILABLE.

MNZ060>063-068>070-211900-
   Twin Cities Metro

CITY           SKY/WX    TMP DP  RH WIND       PRES   REMARKS
TWIN CITIES    FAIR      15   4  61 SW7       30.64R WCI   5
6HR MIN TEMP:   2; 6HR MAX TEMP:  15;

ST PAUL        FAIR      14   2  58 SW8       30.66R WCI   3
CRYSTAL        FAIR      15   1  53 SW9       30.62R WCI   3
BLAINE         MOSUNNY   18   1  49 SW7       30.61R WCI   8
LAKEVILLE      FAIR      14   3  62 W6        30.63S WCI   5
EDEN PRAIRIE   FAIR      13   1  59 SW5       30.63R WCI   5
6HR MIN TEMP:  -1; 6HR MAX TEMP:  13;

SOUTH ST PAUL  FAIR      17   2  53 SW5       30.64S WCI  10
LAKE ELMO      FAIR      16   7  67 S7        30.64R WCI   6
$$
MNZ001>005-007-008-013>017-022>024-027-028-211900-
   Northwest Minnesota

CITY           SKY/WX    TMP DP  RH WIND       PRES   REMARKS
BEMIDJI        FAIR      14  -2  50 SW13G18   30.44R WCI  -1
HALLOCK        FAIR       5  -4  66 S10       30.45R WCI -10
ROSEAU         FAIR       7  -2  66 SW10      30.42R WCI  -8
WARROAD        FAIR       9   0  66 SW8       30.41R WCI  -4
THIEF RVR FALL FAIR       2  -7  66 SW15      30.48R WCI -17
CROOKSTON      FAIR       3  -4  72 S15       30.51R WCI -15
FOSSTON        FAIR       3  -8  60 S15       30.47R HAZE    WCI -15
DETROIT LAKES  FAIR       7  -4  61 SW8       30.51R WCI  -6
MOORHEAD       FAIR       1  -8  66 S9        30.55R WCI -14
PARK RAPIDS    MIX PCPN  10  -1  61 SW10      30.47R WCI  -4
MAHNOMEN       FAIR       3  -5  68 S14       30.49R WCI -15
$$
MNZ006-009>011-018-025>026-211900-
   North Central Minnesota

CITY           SKY/WX    TMP DP  RH WIND       PRES   REMARKS
BAUDETTE       FAIR      10  -1  61 SW7       30.40R WCI  -1
FLAG ISLAND    FAIR       7   0  72 S14       30.38R WCI -10
INTL FALLS     FAIR      11   1  64 SW7       30.41R WCI   0
6HR MIN TEMP: -13; 6HR MAX TEMP:  11;

WASKISH        FAIR       7   0  72 W9        30.44R WCI  -7
BIG FORK       FAIR      16   3  57 SW8       30.43R WCI   5
LONGVILLE      FAIR      16   0  48 SW7       30.48R WCI   6
GRAND RAPIDS   FAIR      15   0  51 SW6       30.49R WCI   6
CRANE LAKE     FAIR      10   1  67 S7        30.45S WCI   0
ORR            FAIR      16   0  48 SW3       30.40R
COOK             N/A     14   1  57 SW8       30.43R WCI   3
WALKER         FAIR      15  -3  44 SW9       30.46R WCI   4
$$
MNZ012-019>021-037-211900-
   Northeast Minnesota

CITY           SKY/WX    TMP DP  RH WIND       PRES   REMARKS
DULUTH         FAIR      15   2  56 SW13      30.48R WCI   1
6HR MIN TEMP:  -4; 6HR MAX TEMP:  15;

ELY            FAIR      12   1  62 SW9       30.43R WCI   0
HIBBING        FAIR      13  -1  54 VRB7      30.45R WCI   3
EVELETH        FAIR     N/A N/A N/A SW10G16   30.46R
DULUTH HARBOR  FAIR      16   3  57 SW14      30.55F WCI   1
TWO HARBORS    FAIR      23   9  54 S6        30.47S WCI  16
GRAND MARAIS     N/A     19   8  62 SW12      30.50R WCI   7
G MARAIS ARPRT FAIR      12   3  67 S7        30.40R WCI   2
$$
MNZ029>031-032-039>041-046>048-054>057-064-211900-
   West Central Minnesota

CITY           SKY/WX    TMP DP  RH WIND       PRES   REMARKS
FERGUS FALLS   FAIR       7  -4  61 S8        30.57R WCI  -6
WHEATON        FAIR       9  -2  61 S5        30.59R WCI   0
MORRIS         FAIR      10   0  61 S5        30.56R WCI   2
ALEXANDRIA     FAIR       9  -2  61 SW7       30.53R WCI  -2
ELBOW LAKE     FAIR       7  -3  65 SW7       30.57R HAZE    WCI  -5
WADENA         FAIR       9  -4  56 SW8       30.51R WCI  -4
GLENWOOD       FAIR      12   0  57 S7        30.56R WCI   2
APPLETON       FAIR      12  -2  52 SW7       30.60R WCI   2
BENSON         FAIR      12   0  57 SW10      30.61R WCI  -1
ORTONVILLE     FAIR      16  -4  41 W7        30.58R WCI   6
MADISON        FAIR      18   1  49 SW9       30.60R WCI   6
WILLMAR        FAIR      10   1  67 SW9       30.62S WCI  -2
$$
MNZ033>034-036-042>043-049>051-058-059-211900-
   Central Minnesota

CITY           SKY/WX    TMP DP  RH WIND       PRES   REMARKS
ST CLOUD       FAIR      12   0  58 W8        30.58F WCI   0
6HR MIN TEMP:  -9; 6HR MAX TEMP:  12;

SAUK CENTRE    FAIR      12   1  61 S7        30.58R WCI   1
PAYNESVILLE    FAIR      11   1  63 SW9       30.59S WCI  -1
AITKIN         FAIR      14  -2  48 SW8       30.51R WCI   3
PINE RIVER     FAIR      12   0  57 SW6       30.51R WCI   3
BRAINERD       FAIR      15  -3  44 SW8       30.52R WCI   4
STAPLES        FAIR      12  -4  48 SW5       30.52R WCI   4
LONG PRAIRIE   FAIR      12   0  57 S6        30.55R WCI   3
LITTLE FALLS   FAIR      10  -8  44 S7        30.58R WCI   0
LITCHFIELD     FAIR      10   1  67 W5        30.60S WCI   2
BUFFALO        FAIR      14   1  55 SW7       30.63S WCI   4
MAPLE LAKE     FAIR      17   3  55 S6        30.61S WCI   8
HUTCHINSON     FAIR      14   3  63 SW8       30.63R WCI   3
$$
MNZ037-044-045-052-053-211900-
   East Central Minnesota

CITY           SKY/WX    TMP DP  RH WIND       PRES   REMARKS
PRINCETON      FAIR      18   1  49 S5        30.59R WCI  11
MORA           FAIR      14   1  57 SW6       30.59S WCI   5
CAMBRIDGE      FAIR      16   1  53 SW5       30.61R WCI   9
RUSH CITY      FAIR      15   0  50 SW5       30.60R WCI   7
MOOSE LAKE     FAIR      18   0  45 SW8       30.52S WCI   7
HINCKLEY       FAIR      16   1  53 SW10      30.57S WCI   3
CLOQUET        FAIR      14   0  52 S10       30.50R WCI   1
MCGREGOR       FAIR      18   1  49 S7        30.52R WCI   8
$$
MNZ071>073-080-081-089-090-097-098-211900-
   Southwest Minnesota

CITY           SKY/WX    TMP DP  RH WIND       PRES   REMARKS
MONTEVIDEO     FAIR      16  -2  45 S8        30.62R WCI   5
GRANITE FALLS  FAIR      13   1  61 S8        30.64F WCI   1
CANBY          FAIR      15   0  51 W3        30.61R
MARSHALL       FAIR      17   2  51 SW12      30.61R WCI   4
REDWOOD FALLS  FAIR      10   1  67 SW7       30.62S WCI  -1
OLIVIA         FAIR      12   1  62 SW8       30.61S WCI   1
PIPESTONE      FAIR       7   0  72 S5        30.57S WCI  -2
WORTHINGTON    FAIR      19   3  49 W6        30.59S WCI  11
JACKSON        FAIR      14   1  57 SW5       30.61S WCI   6
TRACY          FAIR      14   5  66 SW8       30.59F WCI   3
SLAYTON        FAIR      11   2  67 W10       30.58F WCI  -2
$$
MNZ065>067-074>077-082>085-091>093-211900-
   South Central Minnesota

CITY           SKY/WX    TMP DP  RH WIND       PRES   REMARKS
MANKATO        FAIR      15   2  56 SW8       30.64F WCI   4
NEW ULM        FAIR      12   0  57 SW8       30.64R WCI   1
ST JAMES       FAIR      12   3  67 SW5       30.64F WCI   4
FAIRMONT       FAIR      18   5  57 W7        30.63F WCI   9
GLENCOE        FAIR      14   4  64 SW6       30.61F WCI   5
FARIBAULT      FAIR      12   5  73 S5        30.63S WCI   4
OWATONNA       FAIR      12   5  73 SW6       30.62S WCI   3
WASECA         FAIR      14   5  67 SW6       30.65S WCI   5
ALBERT LEA     FAIR      16   5  62 CALM      30.60F
$$
MNZ078>079-086>088-094>096-211900-
   Southeast Minnesota

CITY           SKY/WX    TMP DP  RH WIND       PRES   REMARKS
ROCHESTER      FAIR      15   8  73 W9        30.61R WCI   3
6HR MIN TEMP:   3; 6HR MAX TEMP:  16;

RED WING       FAIR      16   1  53 W7        30.64S WCI   6
STANTON        FAIR      15   5  65 SW6       30.63S WCI   6
DODGE CENTER   FAIR      14   7  73 SW6       30.61R WCI   5
WINONA         FAIR      19  10  68 NW3       30.64F
AUSTIN         FAIR      16   7  67 W5        30.61F WCI   9
PRESTON        FAIR      17   9  71 NW5       30.60F WCI   9
$$
ABBREVIATIONS USED IN REMARKS
   TC - TEMPERATURES IN CELSIUS
  WCI - WIND CHILL INDEX
   HX - HEAT INDEX
  VSB - VISIBILITY
$$




USA.gov is the U.S. government's official web portal to all federal, state and local government web resources and services.